Time,TemperatureF,DewpointF,PressureIn,WindDirection,WindDirectionDegrees,WindSpeedMPH,WindSpeedGustMPH,Humidity,HourlyPrecipIn,Conditions,Clouds,dailyrainin,SoftwareType,DateUTC
2013-06-15 00:01:00,68.3,64.3,30.15,NNE,18,0.0,0.0,87,0.00,,CLR,0.00,VWS V14.01,2013-06-15 04:01:00,
2013-06-15 00:06:00,68.3,64.3,30.15,NNE,18,0.0,0.0,87,0.00,,CLR,0.00,VWS V14.01,2013-06-15 04:06:00,
2013-06-15 00:11:00,68.1,64.4,30.15,NNE,18,0.0,0.0,88,0.00,,CLR,0.00,VWS V14.01,2013-06-15 04:11:00,
2013-06-15 00:16:00,68.1,64.7,30.16,NNE,18,0.0,0.0,89,0.00,,CLR,0.00,VWS V14.01,2013-06-15 04:16:00,
2013-06-15 00:21:00,68.1,64.7,30.16,NNE,18,0.0,0.0,89,0.00,,CLR,0.00,VWS V14.01,2013-06-15 04:21:00,
2013-06-15 00:26:00,68.1,64.7,30.16,NNE,18,0.0,0.0,89,0.00,,CLR,0.00,VWS V14.01,2013-06-15 04:26:00,
2013-06-15 00:31:00,68.1,65.1,30.16,NNE,18,0.0,0.0,90,0.00,,CLR,0.00,VWS V14.01,2013-06-15 04:31:00,
2013-06-15 00:36:00,67.9,64.9,30.16,NNE,18,0.0,0.0,90,0.00,,CLR,0.00,VWS V14.01,2013-06-15 04:36:00,
2013-06-15 00:41:00,67.9,64.9,30.16,NNE,18,0.0,0.0,90,0.00,,CLR,0.00,VWS V14.01,2013-06-15 04:41:00,
2013-06-15 00:46:00,67.8,64.8,30.16,NNE,18,0.0,0.0,90,0.00,,CLR,0.00,VWS V14.01,2013-06-15 04:46:00,
2013-06-15 00:52:00,67.6,64.6,30.16,NNE,18,0.0,0.0,90,0.00,,CLR,0.00,VWS V14.01,2013-06-15 04:52:00,
2013-06-15 00:57:00,67.6,64.9,30.16,NNE,18,0.0,0.0,91,0.00,,CLR,0.00,VWS V14.01,2013-06-15 04:57:00,
2013-06-15 01:02:00,67.4,64.7,30.16,NNE,18,0.0,0.0,91,0.00,,CLR,0.00,VWS V14.01,2013-06-15 05:02:00,
2013-06-15 01:07:00,67.4,64.7,30.16,NNE,18,0.0,0.0,91,0.00,,CLR,0.00,VWS V14.01,2013-06-15 05:07:00,
2013-06-15 01:12:00,67.3,64.6,30.16,NNE,18,0.0,0.0,91,0.00,,CLR,0.00,VWS V14.01,2013-06-15 05:12:00,
2013-06-15 01:17:00,67.1,64.4,30.17,NNE,18,0.0,0.0,91,0.00,,CLR,0.00,VWS V14.01,2013-06-15 05:17:00,
2013-06-15 01:22:00,66.9,64.2,30.17,NNE,18,0.0,0.0,91,0.00,,CLR,0.00,VWS V14.01,2013-06-15 05:22:00,
2013-06-15 01:27:00,66.8,64.1,30.17,NNE,18,0.0,0.0,91,0.00,,CLR,0.00,VWS V14.01,2013-06-15 05:27:00,
2013-06-15 01:32:00,66.8,64.1,30.17,NNE,18,0.0,0.0,91,0.00,,CLR,0.00,VWS V14.01,2013-06-15 05:32:00,
2013-06-15 01:38:00,66.6,64.2,30.17,NNE,18,0.0,0.0,92,0.00,,CLR,0.00,VWS V14.01,2013-06-15 05:38:00,
2013-06-15 01:43:00,66.8,64.4,30.17,NNE,18,0.0,0.0,92,0.00,,CLR,0.00,VWS V14.01,2013-06-15 05:43:00,
2013-06-15 01:48:00,66.8,64.4,30.17,NNE,18,0.0,0.0,92,0.00,,CLR,0.00,VWS V14.01,2013-06-15 05:48:00,
2013-06-15 01:53:00,66.8,64.4,30.17,NNE,18,0.0,0.0,92,0.00,,CLR,0.00,VWS V14.01,2013-06-15 05:53:00,
2013-06-15 01:58:00,66.9,64.5,30.17,NNE,18,0.0,0.0,92,0.00,,CLR,0.00,VWS V14.01,2013-06-15 05:58:00,
2013-06-15 02:03:00,66.9,64.5,30.17,NNE,18,0.0,0.0,92,0.00,,CLR,0.00,VWS V14.01,2013-06-15 06:03:00,
2013-06-15 02:08:00,67.1,64.7,30.17,NNE,18,0.0,0.0,92,0.00,,CLR,0.00,VWS V14.01,2013-06-15 06:08:00,
2013-06-15 02:13:00,67.1,64.7,30.17,NNE,18,0.0,0.0,92,0.00,,CLR,0.00,VWS V14.01,2013-06-15 06:13:00,
2013-06-15 02:18:00,67.1,64.7,30.17,NNE,18,0.0,0.0,92,0.00,,CLR,0.00,VWS V14.01,2013-06-15 06:18:00,
2013-06-15 02:23:00,66.9,64.5,30.17,NNE,18,0.0,0.0,92,0.00,,CLR,0.00,VWS V14.01,2013-06-15 06:23:00,
2013-06-15 02:28:00,66.9,64.5,30.17,NNE,18,0.0,0.0,92,0.00,,CLR,0.00,VWS V14.01,2013-06-15 06:28:00,
2013-06-15 02:34:00,66.9,64.2,30.17,NNE,18,0.0,0.0,91,0.00,,CLR,0.00,VWS V14.01,2013-06-15 06:34:00,
2013-06-15 02:39:00,66.8,64.1,30.17,NNE,18,0.0,0.0,91,0.00,,CLR,0.00,VWS V14.01,2013-06-15 06:39:00,
2013-06-15 02:44:00,66.8,64.1,30.17,NNE,18,0.0,0.0,91,0.00,,CLR,0.00,VWS V14.01,2013-06-15 06:44:00,
2013-06-15 02:49:00,66.6,63.9,30.17,NNE,18,0.0,0.0,91,0.00,,CLR,0.00,VWS V14.01,2013-06-15 06:49:00,
2013-06-15 02:54:00,66.4,63.7,30.17,NNE,18,0.0,0.0,91,0.00,,CLR,0.00,VWS V14.01,2013-06-15 06:54:00,
2013-06-15 02:59:00,66.3,63.6,30.17,NNE,18,0.0,0.0,91,0.00,,CLR,0.00,VWS V14.01,2013-06-15 06:59:00,
2013-06-15 03:04:00,66.1,63.4,30.17,NNE,18,0.0,0.0,91,0.00,,CLR,0.00,VWS V14.01,2013-06-15 07:04:00,
2013-06-15 03:09:00,66.0,63.3,30.17,NNE,18,0.0,0.0,91,0.00,,CLR,0.00,VWS V14.01,2013-06-15 07:09:00,
2013-06-15 03:14:00,65.8,63.1,30.17,NNE,18,0.0,0.0,91,0.00,,CLR,0.00,VWS V14.01,2013-06-15 07:14:00,
2013-06-15 03:19:00,65.6,62.9,30.17,NNE,18,0.0,0.0,91,0.00,,CLR,0.00,VWS V14.01,2013-06-15 07:19:00,
2013-06-15 03:24:00,65.6,62.9,30.17,NNE,18,0.0,0.0,91,0.00,,CLR,0.00,VWS V14.01,2013-06-15 07:24:00,
2013-06-15 03:29:00,65.6,63.2,30.17,NNE,18,0.0,0.0,92,0.00,,CLR,0.00,VWS V14.01,2013-06-15 07:29:00,
2013-06-15 03:34:00,65.5,63.1,30.17,NNE,18,0.0,0.0,92,0.00,,CLR,0.00,VWS V14.01,2013-06-15 07:34:00,
2013-06-15 03:40:00,65.5,63.1,30.17,NNE,18,0.0,0.0,92,0.00,,CLR,0.00,VWS V14.01,2013-06-15 07:40:00,
2013-06-15 03:45:00,65.3,62.9,30.17,NNE,18,0.0,0.0,92,0.00,,CLR,0.00,VWS V14.01,2013-06-15 07:45:00,
2013-06-15 03:50:00,65.3,62.9,30.17,NNE,18,0.0,0.0,92,0.00,,CLR,0.00,VWS V14.01,2013-06-15 07:50:00,
2013-06-15 03:55:00,65.3,62.9,30.17,NNE,18,0.0,0.0,92,0.00,,CLR,0.00,VWS V14.01,2013-06-15 07:55:00,
2013-06-15 04:00:00,65.2,63.1,30.17,NNE,18,0.0,0.0,93,0.00,,CLR,0.00,VWS V14.01,2013-06-15 08:00:00,
2013-06-15 04:05:00,65.2,63.1,30.17,NNE,18,0.0,0.0,93,0.00,,CLR,0.00,VWS V14.01,2013-06-15 08:05:00,
2013-06-15 04:10:00,65.0,62.9,30.17,NNE,18,0.0,0.0,93,0.00,,CLR,0.00,VWS V14.01,2013-06-15 08:10:00,
2013-06-15 04:15:00,65.0,62.9,30.17,NNE,18,0.0,0.0,93,0.00,,CLR,0.00,VWS V14.01,2013-06-15 08:15:00,
2013-06-15 04:20:00,65.0,62.9,30.17,NNE,18,0.0,0.0,93,0.00,,CLR,0.00,VWS V14.01,2013-06-15 08:20:00,
2013-06-15 04:26:00,65.0,62.9,30.17,NNE,18,0.0,0.0,93,0.00,,CLR,0.00,VWS V14.01,2013-06-15 08:26:00,
2013-06-15 04:31:00,64.8,62.7,30.17,NNE,18,0.0,0.0,93,0.00,,CLR,0.00,VWS V14.01,2013-06-15 08:31:00,
2013-06-15 04:36:00,64.8,63.0,30.17,NNE,18,0.0,0.0,94,0.00,,CLR,0.00,VWS V14.01,2013-06-15 08:36:00,
2013-06-15 04:41:00,64.8,63.0,30.17,NNE,18,0.0,0.0,94,0.00,,CLR,0.00,VWS V14.01,2013-06-15 08:41:00,
2013-06-15 04:45:00,65.2,63.4,30.17,NNE,18,0.0,0.0,94,0.00,,CLR,0.00,VWS V14.01,2013-06-15 08:45:00,
2013-06-15 04:51:00,65.2,63.4,30.17,NNE,18,0.0,0.0,94,0.00,,CLR,0.00,VWS V14.01,2013-06-15 08:51:00,
2013-06-15 04:56:00,65.2,63.4,30.17,NNE,18,0.0,0.0,94,0.00,,CLR,0.00,VWS V14.01,2013-06-15 08:56:00,
2013-06-15 05:01:00,65.0,63.2,30.17,NNE,18,0.0,0.0,94,0.00,,CLR,0.00,VWS V14.01,2013-06-15 09:01:00,
2013-06-15 05:06:00,64.8,63.0,30.17,NNE,18,0.0,0.0,94,0.00,,CLR,0.00,VWS V14.01,2013-06-15 09:06:00,
2013-06-15 05:11:00,64.7,62.9,30.17,NNE,18,0.0,0.0,94,0.00,,CLR,0.00,VWS V14.01,2013-06-15 09:11:00,
2013-06-15 05:16:00,64.7,62.9,30.18,NNE,18,0.0,0.0,94,0.00,,CLR,0.00,VWS V14.01,2013-06-15 09:16:00,
2013-06-15 05:21:00,64.5,62.7,30.18,NNE,18,0.0,0.0,94,0.00,,CLR,0.00,VWS V14.01,2013-06-15 09:21:00,
2013-06-15 05:26:00,64.3,62.8,30.18,NNE,18,0.0,0.0,95,0.00,,CLR,0.00,VWS V14.01,2013-06-15 09:26:00,
2013-06-15 05:31:00,64.7,63.2,30.17,NNE,18,0.0,0.0,95,0.00,,CLR,0.00,VWS V14.01,2013-06-15 09:31:00,
2013-06-15 05:36:00,64.7,63.2,30.17,NNE,18,0.0,0.0,95,0.00,,CLR,0.00,VWS V14.01,2013-06-15 09:36:00,
2013-06-15 05:41:00,64.7,63.2,30.17,NNE,18,0.0,0.0,95,0.00,,CLR,0.00,VWS V14.01,2013-06-15 09:41:00,
2013-06-15 05:47:00,64.5,63.0,30.18,NNE,18,0.0,0.0,95,0.00,,CLR,0.00,VWS V14.01,2013-06-15 09:47:00,
2013-06-15 05:52:00,64.3,62.8,30.18,NNE,18,0.0,0.0,95,0.00,,CLR,0.00,VWS V14.01,2013-06-15 09:52:00,
2013-06-15 05:57:00,64.3,62.8,30.18,NNE,18,0.0,0.0,95,0.00,,CLR,0.00,VWS V14.01,2013-06-15 09:57:00,
2013-06-15 06:02:00,64.3,62.8,30.18,NNE,18,0.0,0.0,95,0.00,,CLR,0.00,VWS V14.01,2013-06-15 10:02:00,
2013-06-15 06:07:00,64.2,62.7,30.18,NNE,18,0.0,0.0,95,0.00,,CLR,0.00,VWS V14.01,2013-06-15 10:07:00,
2013-06-15 06:12:00,64.2,62.7,30.18,NNE,18,0.0,0.0,95,0.00,,CLR,0.00,VWS V14.01,2013-06-15 10:12:00,
2013-06-15 06:17:00,64.5,63.0,30.19,NNE,18,0.0,0.0,95,0.00,,CLR,0.00,VWS V14.01,2013-06-15 10:17:00,
2013-06-15 06:22:00,64.7,63.5,30.19,NNE,18,0.0,0.0,96,0.00,,CLR,0.00,VWS V14.01,2013-06-15 10:22:00,
2013-06-15 06:27:00,64.8,63.3,30.19,NNE,18,0.0,0.0,95,0.00,,CLR,0.00,VWS V14.01,2013-06-15 10:27:00,
2013-06-15 06:32:00,64.8,63.3,30.19,NNE,18,0.0,0.0,95,0.00,,CLR,0.00,VWS V14.01,2013-06-15 10:32:00,
2013-06-15 06:37:00,64.7,63.2,30.19,NNE,18,0.0,0.0,95,0.00,,CLR,0.00,VWS V14.01,2013-06-15 10:37:00,
2013-06-15 06:42:00,64.5,63.0,30.19,NNE,18,0.0,0.0,95,0.00,,CLR,0.00,VWS V14.01,2013-06-15 10:42:00,
2013-06-15 06:47:00,64.5,63.0,30.20,NNE,18,0.0,0.0,95,0.00,,CLR,0.00,VWS V14.01,2013-06-15 10:47:00,
2013-06-15 06:52:00,64.7,63.5,30.20,NNE,18,0.0,0.0,96,0.00,,CLR,0.00,VWS V14.01,2013-06-15 10:52:00,
2013-06-15 06:58:00,64.7,63.5,30.20,NNE,18,0.0,0.0,96,0.00,,CLR,0.00,VWS V14.01,2013-06-15 10:58:00,
2013-06-15 07:03:00,65.0,63.8,30.21,NNE,18,0.0,0.0,96,0.00,,FEW040,0.00,VWS V14.01,2013-06-15 11:03:00,
2013-06-15 07:08:00,65.3,64.1,30.21,NNE,18,0.0,0.0,96,0.00,,FEW040,0.00,VWS V14.01,2013-06-15 11:08:00,
2013-06-15 07:13:00,66.0,64.8,30.21,NNE,18,0.0,0.0,96,0.00,,FEW040,0.00,VWS V14.01,2013-06-15 11:13:00,
2013-06-15 07:18:00,66.8,65.6,30.21,NNE,18,0.0,0.0,96,0.00,,FEW040,0.00,VWS V14.01,2013-06-15 11:18:00,
2013-06-15 07:23:00,67.6,66.1,30.21,NNE,18,0.0,0.0,95,0.00,,FEW040,0.00,VWS V14.01,2013-06-15 11:23:00,
2013-06-15 07:28:00,68.4,66.9,30.21,NNE,18,0.0,0.0,95,0.00,,FEW040,0.00,VWS V14.01,2013-06-15 11:28:00,
2013-06-15 07:33:00,69.1,66.7,30.22,NNE,18,0.0,0.0,92,0.00,,FEW040,0.00,VWS V14.01,2013-06-15 11:33:00,
2013-06-15 07:38:00,70.3,67.2,30.22,NNE,18,0.0,0.0,90,0.00,,FEW040,0.00,VWS V14.01,2013-06-15 11:38:00,
2013-06-15 07:44:00,70.9,66.8,30.22,NNE,18,0.0,0.0,87,0.00,,FEW040,0.00,VWS V14.01,2013-06-15 11:44:00,
2013-06-15 07:49:00,71.3,66.6,30.23,NNE,18,0.0,0.0,85,0.00,,FEW040,0.00,VWS V14.01,2013-06-15 11:49:00,
2013-06-15 07:54:00,72.0,66.6,30.23,NNE,18,0.0,0.0,83,0.00,,FEW040,0.00,VWS V14.01,2013-06-15 11:54:00,
2013-06-15 07:58:00,73.0,66.5,30.23,NNE,18,0.0,0.0,80,0.00,,FEW040,0.00,VWS V14.01,2013-06-15 11:58:00,
2013-06-15 08:04:00,73.9,65.9,30.24,NNE,18,0.0,0.0,76,0.00,,SCT250,0.00,VWS V14.01,2013-06-15 12:04:00,
2013-06-15 08:09:00,74.9,65.7,30.24,NNE,18,0.0,0.0,73,0.00,,SCT250,0.00,VWS V14.01,2013-06-15 12:09:00,
2013-06-15 08:14:00,75.8,65.7,30.24,NNE,18,0.0,0.0,71,0.00,,SCT250,0.00,VWS V14.01,2013-06-15 12:14:00,
2013-06-15 08:19:00,76.5,65.6,30.25,NNE,18,0.0,0.0,69,0.00,,SCT250,0.00,VWS V14.01,2013-06-15 12:19:00,
2013-06-15 08:24:00,77.2,66.7,30.25,NNE,18,0.0,0.0,70,0.00,,SCT250,0.00,VWS V14.01,2013-06-15 12:24:00,
2013-06-15 08:29:00,77.9,65.2,30.25,NNE,18,0.0,0.0,65,0.00,,SCT250,0.00,VWS V14.01,2013-06-15 12:29:00,
2013-06-15 08:34:00,78.5,65.8,30.25,NNE,18,0.0,0.0,65,0.00,,SCT250,0.00,VWS V14.01,2013-06-15 12:34:00,
2013-06-15 08:40:00,79.0,65.8,30.25,NNE,20,0.0,0.0,64,0.00,,SCT250,0.00,VWS V14.01,2013-06-15 12:40:00,
2013-06-15 08:45:00,79.4,65.7,30.25,NE,55,0.0,0.0,63,0.00,,SCT250,0.00,VWS V14.01,2013-06-15 12:45:00,
2013-06-15 08:50:00,79.6,65.0,30.26,ESE,110,0.0,0.0,61,0.00,,SCT250,0.00,VWS V14.01,2013-06-15 12:50:00,
2013-06-15 08:55:00,79.6,64.5,30.26,North,8,0.0,0.0,60,0.00,,SCT250,0.00,VWS V14.01,2013-06-15 12:55:00,
2013-06-15 09:00:00,79.9,65.3,30.26,ENE,63,0.0,0.0,61,0.00,,SCT250,0.00,VWS V14.01,2013-06-15 13:00:00,
2013-06-15 09:05:00,80.3,64.7,30.26,ENE,63,0.0,0.0,59,0.00,,SCT250,0.00,VWS V14.01,2013-06-15 13:05:00,
2013-06-15 09:10:00,80.7,65.1,30.26,NE,49,0.0,0.0,59,0.00,,SCT250,0.00,VWS V14.01,2013-06-15 13:10:00,
2013-06-15 09:15:00,80.9,64.2,30.27,NW,315,0.0,1.0,57,0.00,,SCT250,0.00,VWS V14.01,2013-06-15 13:15:00,
2013-06-15 09:20:00,81.2,66.0,30.27,North,358,0.0,0.0,60,0.00,,SCT250,0.00,VWS V14.01,2013-06-15 13:20:00,
2013-06-15 09:25:00,81.6,66.4,30.27,WNW,297,0.0,0.0,60,0.00,,SCT250,0.00,VWS V14.01,2013-06-15 13:25:00,
2013-06-15 09:30:00,81.6,65.4,30.27,North,0,0.0,0.0,58,0.00,,SCT250,0.00,VWS V14.01,2013-06-15 13:30:00,
2013-06-15 09:35:00,82.0,65.3,30.27,ENE,67,0.0,0.0,57,0.00,,SCT250,0.00,VWS V14.01,2013-06-15 13:35:00,
2013-06-15 09:40:00,82.4,66.2,30.27,ENE,62,0.0,0.0,58,0.00,,SCT250,0.00,VWS V14.01,2013-06-15 13:40:00,
2013-06-15 09:45:00,82.6,66.8,30.27,NE,47,0.0,0.0,59,0.00,,SCT250,0.00,VWS V14.01,2013-06-15 13:45:00,
2013-06-15 09:50:00,82.8,66.5,30.27,NE,54,0.0,0.0,58,0.00,,SCT250,0.00,VWS V14.01,2013-06-15 13:50:00,
2013-06-15 09:55:00,83.2,65.9,30.27,ENE,68,0.0,0.0,56,0.00,,SCT250,0.00,VWS V14.01,2013-06-15 13:55:00,
2013-06-15 10:01:00,83.4,65.6,30.27,NE,52,0.0,0.0,55,0.00,,FEW035,0.00,VWS V14.01,2013-06-15 14:01:00,
2013-06-15 10:06:00,83.8,64.9,30.27,ENE,75,0.0,0.0,53,0.00,,FEW035,0.00,VWS V14.01,2013-06-15 14:06:00,
2013-06-15 10:11:00,83.8,65.4,30.27,ENE,75,0.0,0.0,54,0.00,,FEW035,0.00,VWS V14.01,2013-06-15 14:11:00,
2013-06-15 10:16:00,84.0,61.6,30.27,ENE,64,0.0,0.0,47,0.00,,FEW035,0.00,VWS V14.01,2013-06-15 14:16:00,
2013-06-15 10:21:00,84.1,62.3,30.27,ENE,64,0.0,0.0,48,0.00,,FEW035,0.00,VWS V14.01,2013-06-15 14:21:00,
2013-06-15 10:26:00,84.1,64.0,30.27,NE,38,0.0,0.0,51,0.00,,FEW035,0.00,VWS V14.01,2013-06-15 14:26:00,
2013-06-15 10:31:00,84.1,62.3,30.27,North,358,0.0,0.0,48,0.00,,FEW035,0.00,VWS V14.01,2013-06-15 14:31:00,
2013-06-15 10:36:00,84.1,61.1,30.27,North,4,0.0,0.0,46,0.00,,FEW035,0.00,VWS V14.01,2013-06-15 14:36:00,
2013-06-15 10:41:00,84.0,63.4,30.27,NNE,16,0.0,0.0,50,0.00,,FEW035,0.00,VWS V14.01,2013-06-15 14:41:00,
2013-06-15 10:46:00,84.0,64.5,30.27,East,82,0.0,1.0,52,0.00,,FEW035,0.00,VWS V14.01,2013-06-15 14:46:00,
2013-06-15 10:51:00,84.1,62.9,30.27,North,354,0.0,0.0,49,0.00,,FEW035,0.00,VWS V14.01,2013-06-15 14:51:00,
2013-06-15 10:56:00,84.5,63.3,30.27,East,98,0.0,0.0,49,0.00,,FEW035,0.00,VWS V14.01,2013-06-15 14:56:00,
2013-06-15 11:01:00,84.9,63.0,30.27,NNE,23,0.0,0.0,48,0.00,,SCT250,0.00,VWS V14.01,2013-06-15 15:01:00,
2013-06-15 11:07:00,85.3,62.2,30.27,ENE,75,0.0,0.0,46,0.00,,SCT250,0.00,VWS V14.01,2013-06-15 15:07:00,
2013-06-15 11:12:00,84.9,57.9,30.27,NW,319,0.0,0.0,40,0.00,,SCT250,0.00,VWS V14.01,2013-06-15 15:12:00,
2013-06-15 11:17:00,84.7,59.1,30.28,West,278,0.0,0.0,42,0.00,,SCT250,0.00,VWS V14.01,2013-06-15 15:17:00,
2013-06-15 11:22:00,84.9,60.6,30.28,NE,43,0.0,0.0,44,0.00,,SCT250,0.00,VWS V14.01,2013-06-15 15:22:00,
2013-06-15 11:27:00,85.3,62.2,30.28,ENE,77,0.0,0.0,46,0.00,,SCT250,0.00,VWS V14.01,2013-06-15 15:27:00,
2013-06-15 11:32:00,85.3,63.4,30.28,NE,41,0.0,0.0,48,0.00,,SCT250,0.00,VWS V14.01,2013-06-15 15:32:00,
2013-06-15 11:37:00,84.9,63.0,30.28,ENE,71,0.0,1.0,48,0.00,,SCT250,0.00,VWS V14.01,2013-06-15 15:37:00,
2013-06-15 11:42:00,84.1,64.0,30.28,ENE,61,0.0,0.0,51,0.00,,SCT250,0.00,VWS V14.01,2013-06-15 15:42:00,
2013-06-15 11:47:00,84.7,64.6,30.28,NE,44,0.0,0.0,51,0.00,,SCT250,0.00,VWS V14.01,2013-06-15 15:47:00,
2013-06-15 11:52:00,84.9,62.4,30.28,NE,54,0.0,0.0,47,0.00,,SCT250,0.00,VWS V14.01,2013-06-15 15:52:00,
2013-06-15 11:57:00,84.7,63.5,30.28,NE,54,0.0,0.0,49,0.00,,SCT250,0.00,VWS V14.01,2013-06-15 15:57:00,
2013-06-15 12:02:00,84.5,62.7,30.28,ENE,58,0.0,0.0,48,0.00,,SCT250,0.00,VWS V14.01,2013-06-15 16:02:00,
2013-06-15 12:08:00,84.0,61.6,30.28,ENE,58,0.0,0.0,47,0.00,,SCT250,0.00,VWS V14.01,2013-06-15 16:08:00,
2013-06-15 12:13:00,83.6,62.4,30.28,NE,53,0.0,0.0,49,0.00,,SCT250,0.00,VWS V14.01,2013-06-15 16:13:00,
2013-06-15 12:18:00,83.6,62.4,30.28,ENE,63,0.0,0.0,49,0.00,,SCT250,0.00,VWS V14.01,2013-06-15 16:18:00,
2013-06-15 12:23:00,84.5,63.3,30.28,ENE,57,0.0,0.0,49,0.00,,SCT250,0.00,VWS V14.01,2013-06-15 16:23:00,
2013-06-15 12:28:00,85.3,60.3,30.28,ENE,77,0.0,0.0,43,0.00,,SCT250,0.00,VWS V14.01,2013-06-15 16:28:00,
2013-06-15 12:33:00,84.5,60.8,30.28,North,358,0.0,0.0,45,0.00,,SCT250,0.00,VWS V14.01,2013-06-15 16:33:00,
2013-06-15 12:38:00,83.4,62.8,30.28,North,11,0.0,1.0,50,0.00,,SCT250,0.00,VWS V14.01,2013-06-15 16:38:00,
2013-06-15 12:43:00,82.8,61.7,30.28,NNE,32,0.0,0.0,49,0.00,,SCT250,0.00,VWS V14.01,2013-06-15 16:43:00,
2013-06-15 12:48:00,83.2,64.8,30.28,SSW,211,0.0,1.0,54,0.00,,SCT250,0.00,VWS V14.01,2013-06-15 16:48:00,
2013-06-15 12:53:00,84.1,64.0,30.28,NE,53,0.0,0.0,51,0.00,,SCT250,0.00,VWS V14.01,2013-06-15 16:53:00,
2013-06-15 12:59:00,84.9,64.2,30.28,North,7,0.0,1.0,50,0.00,,SCT250,0.00,VWS V14.01,2013-06-15 16:59:00,
2013-06-15 13:04:00,85.5,65.9,30.27,ENE,68,0.0,0.0,52,0.00,,BKN250,0.00,VWS V14.01,2013-06-15 17:04:00,
2013-06-15 13:09:00,85.7,64.9,30.27,NNW,338,0.0,0.0,50,0.00,,BKN250,0.00,VWS V14.01,2013-06-15 17:09:00,
2013-06-15 13:14:00,85.7,64.4,30.27,East,85,0.0,0.0,49,0.00,,BKN250,0.00,VWS V14.01,2013-06-15 17:14:00,
2013-06-15 13:19:00,85.9,65.1,30.27,ENE,77,0.0,1.0,50,0.00,,BKN250,0.00,VWS V14.01,2013-06-15 17:19:00,
2013-06-15 13:24:00,86.1,64.7,30.27,ENE,74,0.0,0.0,49,0.00,,BKN250,0.00,VWS V14.01,2013-06-15 17:24:00,
2013-06-15 13:29:00,85.9,63.3,30.27,North,358,0.0,0.0,47,0.00,,BKN250,0.00,VWS V14.01,2013-06-15 17:29:00,
2013-06-15 13:34:00,85.7,64.9,30.27,ENE,63,0.0,0.0,50,0.00,,BKN250,0.00,VWS V14.01,2013-06-15 17:34:00,
2013-06-15 13:39:00,85.5,63.0,30.27,East,97,0.0,0.0,47,0.00,,BKN250,0.00,VWS V14.01,2013-06-15 17:39:00,
2013-06-15 13:44:00,85.5,63.6,30.27,NE,41,0.0,0.0,48,0.00,,BKN250,0.00,VWS V14.01,2013-06-15 17:44:00,
2013-06-15 13:49:00,85.7,63.8,30.27,ENE,60,0.0,0.0,48,0.00,,BKN250,0.00,VWS V14.01,2013-06-15 17:49:00,
2013-06-15 13:54:00,85.5,63.6,30.27,NNE,23,0.0,1.0,48,0.00,,BKN250,0.00,VWS V14.01,2013-06-15 17:54:00,
2013-06-15 13:59:00,85.5,63.0,30.27,NE,46,0.0,0.0,47,0.00,,BKN250,0.00,VWS V14.01,2013-06-15 17:59:00,
2013-06-15 14:04:00,85.3,62.8,30.27,ENE,74,0.0,0.0,47,0.00,,SCT250,0.00,VWS V14.01,2013-06-15 18:04:00,
2013-06-15 14:09:00,85.3,62.8,30.27,East,84,0.0,1.0,47,0.00,,SCT250,0.00,VWS V14.01,2013-06-15 18:09:00,
2013-06-15 14:14:00,85.1,63.8,30.27,East,82,0.0,0.0,49,0.00,,SCT250,0.00,VWS V14.01,2013-06-15 18:14:00,
2013-06-15 14:19:00,85.1,63.8,30.26,ENE,73,0.0,0.0,49,0.00,,SCT250,0.00,VWS V14.01,2013-06-15 18:19:00,
2013-06-15 14:25:00,85.7,63.8,30.26,NE,43,0.0,0.0,48,0.00,,SCT250,0.00,VWS V14.01,2013-06-15 18:25:00,
2013-06-15 14:30:00,85.7,63.2,30.26,ENE,60,0.0,1.0,47,0.00,,SCT250,0.00,VWS V14.01,2013-06-15 18:30:00,
2013-06-15 14:35:00,85.5,62.4,30.26,NE,50,0.0,0.0,46,0.00,,SCT250,0.00,VWS V14.01,2013-06-15 18:35:00,
2013-06-15 14:40:00,85.3,62.8,30.26,ENE,71,0.0,0.0,47,0.00,,SCT250,0.00,VWS V14.01,2013-06-15 18:40:00,
2013-06-15 14:45:00,85.5,62.4,30.25,NE,37,0.0,0.0,46,0.00,,SCT250,0.00,VWS V14.01,2013-06-15 18:45:00,
2013-06-15 14:50:00,85.3,63.4,30.25,SE,139,0.0,0.0,48,0.00,,SCT250,0.00,VWS V14.01,2013-06-15 18:50:00,
2013-06-15 14:55:00,85.1,63.8,30.25,NE,36,0.0,0.0,49,0.00,,SCT250,0.00,VWS V14.01,2013-06-15 18:55:00,
2013-06-15 15:00:00,85.3,62.2,30.25,ENE,65,3.0,3.0,46,0.00,,SCT250,0.00,VWS V14.01,2013-06-15 19:00:00,
2013-06-15 15:05:00,85.1,61.4,30.25,SSW,194,0.0,1.0,45,0.00,,SCT250,0.00,VWS V14.01,2013-06-15 19:05:00,
2013-06-15 15:10:00,84.9,63.0,30.25,NNW,336,0.0,0.0,48,0.00,,SCT250,0.00,VWS V14.01,2013-06-15 19:10:00,
2013-06-15 15:16:00,84.7,61.7,30.25,ENE,63,0.0,3.0,46,0.00,,SCT250,0.00,VWS V14.01,2013-06-15 19:16:00,
2013-06-15 15:21:00,84.9,62.4,30.25,SE,143,0.0,1.0,47,0.00,,SCT250,0.00,VWS V14.01,2013-06-15 19:21:00,
2013-06-15 15:26:00,84.9,62.4,30.25,NNE,31,0.0,0.0,47,0.00,,SCT250,0.00,VWS V14.01,2013-06-15 19:26:00,
2013-06-15 15:31:00,85.1,62.0,30.25,ENE,58,3.0,3.0,46,0.00,,SCT250,0.00,VWS V14.01,2013-06-15 19:31:00,
2013-06-15 15:36:00,85.1,62.6,30.25,North,5,0.0,1.0,47,0.00,,SCT250,0.00,VWS V14.01,2013-06-15 19:36:00,
2013-06-15 15:41:00,84.9,61.8,30.25,NNE,26,0.0,2.0,46,0.00,,SCT250,0.00,VWS V14.01,2013-06-15 19:41:00,
2013-06-15 15:46:00,84.5,63.3,30.25,ENE,77,1.0,3.0,49,0.00,,SCT250,0.00,VWS V14.01,2013-06-15 19:46:00,
2013-06-15 15:51:00,84.5,63.3,30.25,ENE,78,0.0,0.0,49,0.00,,SCT250,0.00,VWS V14.01,2013-06-15 19:51:00,
2013-06-15 15:56:00,84.7,62.9,30.25,North,0,0.0,0.0,48,0.00,,SCT250,0.00,VWS V14.01,2013-06-15 19:56:00,
2013-06-15 16:01:00,84.5,63.3,30.25,NNE,33,0.0,0.0,49,0.00,,SCT250,0.00,VWS V14.01,2013-06-15 20:01:00,
2013-06-15 16:06:00,84.5,61.5,30.25,North,0,0.0,1.0,46,0.00,,SCT250,0.00,VWS V14.01,2013-06-15 20:06:00,
2013-06-15 16:11:00,84.3,61.3,30.25,ENE,76,0.0,0.0,46,0.00,,SCT250,0.00,VWS V14.01,2013-06-15 20:11:00,
2013-06-15 16:16:00,84.3,60.0,30.25,East,92,2.0,2.0,44,0.00,,SCT250,0.00,VWS V14.01,2013-06-15 20:16:00,
2013-06-15 16:21:00,84.1,59.9,30.25,ENE,68,0.0,0.0,44,0.00,,SCT250,0.00,VWS V14.01,2013-06-15 20:21:00,
2013-06-15 16:26:00,84.1,61.7,30.25,NE,45,0.0,0.0,47,0.00,,SCT250,0.00,VWS V14.01,2013-06-15 20:26:00,
2013-06-15 16:31:00,84.1,59.9,30.25,ENE,77,0.0,0.0,44,0.00,,SCT250,0.00,VWS V14.01,2013-06-15 20:31:00,
2013-06-15 16:36:00,84.1,59.9,30.25,NE,56,0.0,0.0,44,0.00,,SCT250,0.00,VWS V14.01,2013-06-15 20:36:00,
2013-06-15 16:41:00,84.3,60.7,30.25,ESE,108,2.0,2.0,45,0.00,,SCT250,0.00,VWS V14.01,2013-06-15 20:41:00,
2013-06-15 16:46:00,84.3,60.0,30.26,East,83,0.0,0.0,44,0.00,,SCT250,0.00,VWS V14.01,2013-06-15 20:46:00,
2013-06-15 16:51:00,84.5,60.8,30.26,NE,56,0.0,0.0,45,0.00,,SCT250,0.00,VWS V14.01,2013-06-15 20:51:00,
2013-06-15 16:57:00,84.5,59.6,30.26,NE,51,0.0,0.0,43,0.00,,SCT250,0.00,VWS V14.01,2013-06-15 20:57:00,
2013-06-15 17:02:00,84.5,60.8,30.25,ENE,63,0.0,0.0,45,0.00,,SCT250,0.00,VWS V14.01,2013-06-15 21:02:00,
2013-06-15 17:07:00,84.5,60.2,30.25,ENE,70,0.0,0.0,44,0.00,,SCT250,0.00,VWS V14.01,2013-06-15 21:07:00,
2013-06-15 17:12:00,84.3,59.4,30.25,NE,34,0.0,0.0,43,0.00,,SCT250,0.00,VWS V14.01,2013-06-15 21:12:00,
2013-06-15 17:17:00,84.1,59.2,30.25,NE,51,0.0,0.0,43,0.00,,SCT250,0.00,VWS V14.01,2013-06-15 21:17:00,
2013-06-15 17:22:00,84.0,59.1,30.25,NE,53,0.0,0.0,43,0.00,,SCT250,0.00,VWS V14.01,2013-06-15 21:22:00,
2013-06-15 17:27:00,83.8,58.9,30.25,East,88,0.0,0.0,43,0.00,,SCT250,0.00,VWS V14.01,2013-06-15 21:27:00,
2013-06-15 17:32:00,84.0,59.8,30.25,NE,38,0.0,0.0,44,0.00,,SCT250,0.00,VWS V14.01,2013-06-15 21:32:00,
2013-06-15 17:37:00,84.1,57.2,30.25,ENE,60,0.0,0.0,40,0.00,,SCT250,0.00,VWS V14.01,2013-06-15 21:37:00,
2013-06-15 17:42:00,84.1,58.5,30.25,ENE,58,0.0,0.0,42,0.00,,SCT250,0.00,VWS V14.01,2013-06-15 21:42:00,
2013-06-15 17:47:00,84.0,59.1,30.25,ENE,67,0.0,1.0,43,0.00,,SCT250,0.00,VWS V14.01,2013-06-15 21:47:00,
2013-06-15 17:52:00,84.0,57.8,30.25,ENE,69,0.0,0.0,41,0.00,,SCT250,0.00,VWS V14.01,2013-06-15 21:52:00,
2013-06-15 17:57:00,84.0,57.8,30.25,East,80,0.0,0.0,41,0.00,,SCT250,0.00,VWS V14.01,2013-06-15 21:57:00,
2013-06-15 18:02:00,83.8,56.9,30.25,ENE,72,0.0,0.0,40,0.00,,SCT250,0.00,VWS V14.01,2013-06-15 22:02:00,
2013-06-15 18:07:00,83.6,56.8,30.25,ENE,65,0.0,0.0,40,0.00,,SCT250,0.00,VWS V14.01,2013-06-15 22:07:00,
2013-06-15 18:12:00,83.2,56.4,30.25,NE,41,0.0,1.0,40,0.00,,SCT250,0.00,VWS V14.01,2013-06-15 22:12:00,
2013-06-15 18:17:00,83.0,54.8,30.25,ENE,60,0.0,0.0,38,0.00,,SCT250,0.00,VWS V14.01,2013-06-15 22:17:00,
2013-06-15 18:22:00,83.0,56.9,30.25,NE,49,0.0,0.0,41,0.00,,SCT250,0.00,VWS V14.01,2013-06-15 22:22:00,
2013-06-15 18:27:00,83.0,56.2,30.25,ENE,68,0.0,0.0,40,0.00,,SCT250,0.00,VWS V14.01,2013-06-15 22:27:00,
2013-06-15 18:32:00,82.8,56.0,30.25,NNE,24,0.0,0.0,40,0.00,,SCT250,0.00,VWS V14.01,2013-06-15 22:32:00,
2013-06-15 18:37:00,82.8,53.9,30.25,East,82,0.0,0.0,37,0.00,,SCT250,0.00,VWS V14.01,2013-06-15 22:37:00,
2013-06-15 18:42:00,82.6,53.0,30.25,NE,53,0.0,0.0,36,0.00,,SCT250,0.00,VWS V14.01,2013-06-15 22:42:00,
2013-06-15 18:47:00,82.2,54.8,30.25,ENE,62,0.0,0.0,39,0.00,,SCT250,0.00,VWS V14.01,2013-06-15 22:47:00,
2013-06-15 18:51:00,82.0,55.3,30.25,East,88,0.0,0.0,40,0.00,,SCT250,0.00,VWS V14.01,2013-06-15 22:51:00,
2013-06-15 18:57:00,81.8,55.1,30.25,East,92,0.0,0.0,40,0.00,,SCT250,0.00,VWS V14.01,2013-06-15 22:57:00,
2013-06-15 19:02:00,81.4,56.1,30.25,ESE,123,0.0,0.0,42,0.00,,FEW250,0.00,VWS V14.01,2013-06-15 23:02:00,
2013-06-15 19:07:00,81.2,55.3,30.25,North,0,0.0,0.0,41,0.00,,FEW250,0.00,VWS V14.01,2013-06-15 23:07:00,
2013-06-15 19:12:00,81.1,55.9,30.25,SE,140,0.0,0.0,42,0.00,,FEW250,0.00,VWS V14.01,2013-06-15 23:12:00,
2013-06-15 19:17:00,80.7,54.8,30.25,East,96,0.0,0.0,41,0.00,,FEW250,0.00,VWS V14.01,2013-06-15 23:17:00,
2013-06-15 19:22:00,80.3,53.8,30.25,East,98,0.0,0.0,40,0.00,,FEW250,0.00,VWS V14.01,2013-06-15 23:22:00,
2013-06-15 19:27:00,79.9,54.1,30.25,East,97,0.0,0.0,41,0.00,,FEW250,0.00,VWS V14.01,2013-06-15 23:27:00,
2013-06-15 19:32:00,79.4,55.0,30.26,NNE,32,0.0,0.0,43,0.00,,FEW250,0.00,VWS V14.01,2013-06-15 23:32:00,
2013-06-15 19:37:00,78.8,54.4,30.26,NNE,32,0.0,0.0,43,0.00,,FEW250,0.00,VWS V14.01,2013-06-15 23:37:00,
2013-06-15 19:42:00,78.3,54.6,30.26,NE,34,0.0,0.0,44,0.00,,FEW250,0.00,VWS V14.01,2013-06-15 23:42:00,
2013-06-15 19:47:00,77.9,55.5,30.27,NE,48,0.0,0.0,46,0.00,,FEW250,0.00,VWS V14.01,2013-06-15 23:47:00,
2013-06-15 19:52:00,77.4,55.6,30.27,NE,48,0.0,0.0,47,0.00,,FEW250,0.00,VWS V14.01,2013-06-15 23:52:00,
2013-06-15 19:57:00,77.2,56.0,30.27,NE,48,0.0,0.0,48,0.00,,FEW250,0.00,VWS V14.01,2013-06-15 23:57:00,
2013-06-15 20:02:00,76.8,56.2,30.26,NE,48,0.0,0.0,49,0.00,,FEW250,0.00,VWS V14.01,2013-06-16 00:02:00,
2013-06-15 20:07:00,76.3,56.3,30.26,NE,48,0.0,0.0,50,0.00,,FEW250,0.00,VWS V14.01,2013-06-16 00:07:00,
2013-06-15 20:12:00,76.0,56.6,30.26,NE,48,0.0,0.0,51,0.00,,FEW250,0.00,VWS V14.01,2013-06-16 00:12:00,
2013-06-15 20:17:00,75.6,56.8,30.25,NE,48,0.0,0.0,52,0.00,,FEW250,0.00,VWS V14.01,2013-06-16 00:17:00,
2013-06-15 20:22:00,75.3,56.5,30.25,NE,48,0.0,0.0,52,0.00,,FEW250,0.00,VWS V14.01,2013-06-16 00:22:00,
2013-06-15 20:27:00,74.9,56.1,30.25,NE,48,0.0,0.0,52,0.00,,FEW250,0.00,VWS V14.01,2013-06-16 00:27:00,
2013-06-15 20:32:00,74.6,56.4,30.25,NE,48,0.0,0.0,53,0.00,,FEW250,0.00,VWS V14.01,2013-06-16 00:32:00,
2013-06-15 20:37:00,74.2,56.5,30.25,NE,48,0.0,0.0,54,0.00,,FEW250,0.00,VWS V14.01,2013-06-16 00:37:00,
2013-06-15 20:42:00,73.9,56.2,30.25,NE,48,0.0,0.0,54,0.00,,FEW250,0.00,VWS V14.01,2013-06-16 00:42:00,
2013-06-15 20:47:00,73.5,55.9,30.25,NE,48,0.0,0.0,54,0.00,,FEW250,0.00,VWS V14.01,2013-06-16 00:47:00,
2013-06-15 20:52:00,73.5,55.9,30.25,NE,48,0.0,0.0,54,0.00,,FEW250,0.00,VWS V14.01,2013-06-16 00:52:00,
2013-06-15 20:57:00,73.2,56.1,30.25,NE,48,0.0,0.0,55,0.00,,FEW250,0.00,VWS V14.01,2013-06-16 00:57:00,
2013-06-15 21:02:00,73.0,55.9,30.25,NE,48,0.0,0.0,55,0.00,,FEW250,0.00,VWS V14.01,2013-06-16 01:02:00,
2013-06-15 21:07:00,72.8,55.7,30.25,NE,48,0.0,0.0,55,0.00,,FEW250,0.00,VWS V14.01,2013-06-16 01:07:00,
2013-06-15 21:12:00,72.7,56.6,30.25,NE,48,0.0,0.0,57,0.00,,FEW250,0.00,VWS V14.01,2013-06-16 01:12:00,
2013-06-15 21:17:00,72.5,56.9,30.26,NE,48,0.0,0.0,58,0.00,,FEW250,0.00,VWS V14.01,2013-06-16 01:17:00,
2013-06-15 21:22:00,72.1,57.0,30.26,NE,48,0.0,0.0,59,0.00,,FEW250,0.00,VWS V14.01,2013-06-16 01:22:00,
2013-06-15 21:27:00,71.8,57.6,30.26,NE,48,0.0,0.0,61,0.00,,FEW250,0.00,VWS V14.01,2013-06-16 01:27:00,
2013-06-15 21:32:00,71.3,58.9,30.26,NE,48,0.0,0.0,65,0.00,,FEW250,0.00,VWS V14.01,2013-06-16 01:32:00,
2013-06-15 21:37:00,70.9,58.1,30.26,NE,48,0.0,0.0,64,0.00,,FEW250,0.00,VWS V14.01,2013-06-16 01:37:00,
2013-06-15 21:42:00,70.6,58.3,30.26,NE,48,0.0,0.0,65,0.00,,FEW250,0.00,VWS V14.01,2013-06-16 01:42:00,
2013-06-15 21:47:00,70.3,58.4,30.27,NE,48,0.0,0.0,66,0.00,,FEW250,0.00,VWS V14.01,2013-06-16 01:47:00,
2013-06-15 21:52:00,69.8,58.4,30.27,NE,48,0.0,0.0,67,0.00,,FEW250,0.00,VWS V14.01,2013-06-16 01:52:00,
2013-06-15 21:57:00,69.6,58.6,30.27,NE,48,0.0,0.0,68,0.00,,FEW250,0.00,VWS V14.01,2013-06-16 01:57:00,
2013-06-15 22:02:00,69.3,58.3,30.27,NE,48,0.0,0.0,68,0.00,,CLR,0.00,VWS V14.01,2013-06-16 02:02:00,
2013-06-15 22:07:00,69.1,58.5,30.27,NE,48,0.0,0.0,69,0.00,,CLR,0.00,VWS V14.01,2013-06-16 02:07:00,
2013-06-15 22:12:00,68.8,58.2,30.27,NE,48,0.0,0.0,69,0.00,,CLR,0.00,VWS V14.01,2013-06-16 02:12:00,
2013-06-15 22:17:00,68.4,58.2,30.27,NE,48,0.0,0.0,70,0.00,,CLR,0.00,VWS V14.01,2013-06-16 02:17:00,
2013-06-15 22:22:00,68.3,58.5,30.27,NE,48,0.0,0.0,71,0.00,,CLR,0.00,VWS V14.01,2013-06-16 02:22:00,
2013-06-15 22:27:00,67.9,59.7,30.27,NE,48,0.0,0.0,75,0.00,,CLR,0.00,VWS V14.01,2013-06-16 02:27:00,
2013-06-15 22:32:00,67.8,59.2,30.28,NE,48,0.0,0.0,74,0.00,,CLR,0.00,VWS V14.01,2013-06-16 02:32:00,
2013-06-15 22:37:00,67.6,59.4,30.28,NE,48,0.0,0.0,75,0.00,,CLR,0.00,VWS V14.01,2013-06-16 02:37:00,
2013-06-15 22:42:00,67.4,59.6,30.28,NE,48,0.0,0.0,76,0.00,,CLR,0.00,VWS V14.01,2013-06-16 02:42:00,
2013-06-15 22:47:00,67.1,59.3,30.28,NE,48,0.0,0.0,76,0.00,,CLR,0.00,VWS V14.01,2013-06-16 02:47:00,
2013-06-15 22:52:00,66.9,59.1,30.28,NE,48,0.0,0.0,76,0.00,,CLR,0.00,VWS V14.01,2013-06-16 02:52:00,
2013-06-15 22:57:00,66.6,59.2,30.28,NE,48,0.0,0.0,77,0.00,,CLR,0.00,VWS V14.01,2013-06-16 02:57:00,
2013-06-15 23:02:00,66.4,59.0,30.28,NE,48,0.0,0.0,77,0.00,,CLR,0.00,VWS V14.01,2013-06-16 03:02:00,
2013-06-15 23:07:00,66.3,58.9,30.28,NE,48,0.0,0.0,77,0.00,,CLR,0.00,VWS V14.01,2013-06-16 03:07:00,
2013-06-15 23:12:00,66.0,59.0,30.28,NE,48,0.0,0.0,78,0.00,,CLR,0.00,VWS V14.01,2013-06-16 03:12:00,
2013-06-15 23:17:00,66.0,59.3,30.28,NE,48,0.0,0.0,79,0.00,,CLR,0.00,VWS V14.01,2013-06-16 03:17:00,
2013-06-15 23:22:00,66.0,59.3,30.28,NE,48,0.0,0.0,79,0.00,,CLR,0.00,VWS V14.01,2013-06-16 03:22:00,
2013-06-15 23:27:00,66.0,59.3,30.28,NE,48,0.0,0.0,79,0.00,,CLR,0.00,VWS V14.01,2013-06-16 03:27:00,
2013-06-15 23:32:00,66.1,59.0,30.28,NE,48,0.0,0.0,78,0.00,,CLR,0.00,VWS V14.01,2013-06-16 03:32:00,
2013-06-15 23:37:00,66.1,59.0,30.28,NE,48,0.0,0.0,78,0.00,,CLR,0.00,VWS V14.01,2013-06-16 03:37:00,
2013-06-15 23:42:00,66.3,59.2,30.28,NE,48,0.0,0.0,78,0.00,,CLR,0.00,VWS V14.01,2013-06-16 03:42:00,
2013-06-15 23:47:00,66.3,59.2,30.28,NE,48,0.0,0.0,78,0.00,,CLR,0.00,VWS V14.01,2013-06-16 03:47:00,
2013-06-15 23:52:00,66.1,59.0,30.28,NE,48,0.0,0.0,78,0.00,,CLR,0.00,VWS V14.01,2013-06-16 03:52:00,
2013-06-15 23:57:00,66.1,59.0,30.28,NE,48,0.0,0.0,78,0.00,,CLR,0.00,VWS V14.01,2013-06-16 03:57:00,